DLH1069 LFMN-EDDF

Flight info

Callsign DLH1069
Flight time 1h 17m
Altitude 38000
Route BASIP DCT ANAKI DCT ABESI DCT LADOL T163 EMPAX EMPAX5B
Aircraft A320/M-SDE3FGHIRWY/LB1

Departure

Time 2026-05-06 21:57
Airport Nice-Côte d'Azur Airport (LFMN)

Arrival

Time 2026-05-06 23:14
Airport Frankfurt Main Airport (EDDF)
Time Latitude Longitude Altitude Speed Heading
2026-05-06 21:40 43.66081 7.20699 27 ft 0 kts 261°
2026-05-06 21:48 43.66081 7.20700 28 ft 0 kts 261°
2026-05-06 21:49 43.66082 7.20713 27 ft 2 kts 260°
2026-05-06 21:49 43.66084 7.20734 27 ft 2 kts 261°
2026-05-06 21:50 43.66087 7.20754 27 ft 2 kts 260°
2026-05-06 21:50 43.66089 7.20771 26 ft 0 kts 261°
2026-05-06 21:50 43.66092 7.20786 26 ft 2 kts 226°
2026-05-06 21:50 43.66105 7.20796 27 ft 2 kts 183°
2026-05-06 21:51 43.66112 7.20795 27 ft 1 kts 162°
2026-05-06 21:51 43.66116 7.20794 27 ft 0 kts 169°
2026-05-06 21:53 43.66093 7.20800 25 ft 13 kts 170°
2026-05-06 21:53 43.65942 7.20821 24 ft 23 kts 189°
2026-05-06 21:53 43.65807 7.20700 24 ft 24 kts 227°
2026-05-06 21:53 43.65686 7.20528 24 ft 25 kts 224°
2026-05-06 21:54 43.65557 7.20354 24 ft 25 kts 225°
2026-05-06 21:54 43.65431 7.20192 23 ft 24 kts 208°
2026-05-06 21:54 43.65291 7.20277 23 ft 23 kts 136°
2026-05-06 21:54 43.65178 7.20436 22 ft 23 kts 135°
2026-05-06 21:55 43.65034 7.20501 22 ft 22 kts 202°
2026-05-06 21:55 43.64917 7.20359 21 ft 22 kts 224°
2026-05-06 21:55 43.64806 7.20209 21 ft 22 kts 214°
2026-05-06 21:55 43.64700 7.20285 21 ft 19 kts 83°
2026-05-06 21:56 43.64766 7.20378 21 ft 22 kts 42°
2026-05-06 21:56 43.65064 7.20777 22 ft 95 kts 45°
2026-05-06 21:56 43.65688 7.21634 21 ft 155 kts 46°
2026-05-06 21:56 43.66540 7.22795 328 ft 177 kts 43°
2026-05-06 21:57 43.67276 7.24051 1131 ft 172 kts 63°
2026-05-06 21:57 43.67292 7.25665 1786 ft 179 kts 114°
2026-05-06 21:57 43.66553 7.27114 2301 ft 192 kts 129°
2026-05-06 21:57 43.65637 7.28544 2737 ft 208 kts 131°
2026-05-06 21:58 43.64625 7.30077 3175 ft 225 kts 132°
2026-05-06 21:58 43.63628 7.31818 3644 ft 241 kts 115°
2026-05-06 21:58 43.63307 7.34031 4472 ft 239 kts 82°
2026-05-06 21:58 43.63753 7.36200 5319 ft 237 kts 65°
2026-05-06 21:59 43.64429 7.38250 6091 ft 240 kts 63°
2026-05-06 21:59 43.65109 7.40355 6858 ft 244 kts 65°
2026-05-06 21:59 43.65752 7.42532 7617 ft 248 kts 67°
2026-05-06 21:59 43.66358 7.44734 8343 ft 252 kts 68°
2026-05-06 22:00 43.66965 7.47025 9099 ft 255 kts 68°
2026-05-06 22:00 43.67568 7.49321 9837 ft 259 kts 68°
2026-05-06 22:00 43.68204 7.51710 10346 ft 274 kts 69°
2026-05-06 22:00 43.68882 7.54250 10765 ft 292 kts 69°
2026-05-06 22:01 43.69594 7.56924 11160 ft 309 kts 69°
2026-05-06 22:01 43.70353 7.59785 11543 ft 327 kts 69°
2026-05-06 22:01 43.71158 7.62823 11891 ft 345 kts 69°
2026-05-06 22:01 43.71999 7.66007 12341 ft 358 kts 70°
2026-05-06 22:02 43.72903 7.69226 13019 ft 363 kts 65°
2026-05-06 22:02 43.74122 7.72269 13731 ft 365 kts 56°
2026-05-06 22:02 43.75682 7.75053 14412 ft 369 kts 49°
2026-05-06 22:02 43.77367 7.77680 15028 ft 373 kts 47°
2026-05-06 22:03 43.79118 7.80359 15660 ft 378 kts 47°
2026-05-06 22:03 43.80873 7.83068 16282 ft 382 kts 47°
2026-05-06 22:03 43.82657 7.85846 16890 ft 386 kts 47°
2026-05-06 22:03 43.84430 7.88627 17486 ft 390 kts 48°
2026-05-06 22:04 43.86211 7.91431 18074 ft 393 kts 47°
2026-05-06 22:04 43.87988 7.94314 18615 ft 398 kts 51°
2026-05-06 22:04 43.89639 7.97414 19110 ft 403 kts 56°
2026-05-06 22:04 43.91125 8.00728 19561 ft 409 kts 60°
2026-05-06 22:05 43.92544 8.04176 20047 ft 414 kts 61°
2026-05-06 22:05 43.93949 8.07654 20510 ft 419 kts 62°
2026-05-06 22:05 43.95379 8.11196 20931 ft 424 kts 62°
2026-05-06 22:05 43.96826 8.14771 21354 ft 429 kts 62°
2026-05-06 22:06 43.98305 8.18416 21786 ft 435 kts 62°
2026-05-06 22:06 43.99778 8.22052 22196 ft 440 kts 62°
2026-05-06 22:06 44.01292 8.25783 22617 ft 445 kts 62°
2026-05-06 22:06 44.02815 8.29544 23054 ft 449 kts 62°
2026-05-06 22:07 44.04333 8.33299 23436 ft 453 kts 62°
2026-05-06 22:07 44.05888 8.37149 23819 ft 458 kts 63°
2026-05-06 22:07 44.07451 8.41020 24242 ft 462 kts 62°
2026-05-06 22:07 44.09005 8.44877 24693 ft 465 kts 62°
2026-05-06 22:08 44.10588 8.48808 25128 ft 467 kts 62°
2026-05-06 22:08 44.12182 8.52771 25501 ft 471 kts 62°
2026-05-06 22:08 44.13791 8.56775 25854 ft 474 kts 62°
2026-05-06 22:08 44.15386 8.60755 26209 ft 478 kts 63°
2026-05-06 22:09 44.17001 8.64786 26580 ft 481 kts 63°
2026-05-06 22:09 44.18735 8.68779 26910 ft 485 kts 53°
2026-05-06 22:09 44.21202 8.72021 27205 ft 487 kts 31°
2026-05-06 22:09 44.24259 8.73913 27554 ft 479 kts 10°
2026-05-06 22:10 44.27497 8.74598 27908 ft 474 kts 359°
2026-05-06 22:10 44.30768 8.74898 28187 ft 477 kts 358°
2026-05-06 22:10 44.34091 8.75175 28470 ft 481 kts 358°
2026-05-06 22:10 44.37434 8.75521 28783 ft 484 kts 359°
2026-05-06 22:11 44.40793 8.75940 29097 ft 486 kts
2026-05-06 22:11 44.44181 8.76416 29395 ft 489 kts
2026-05-06 22:11 44.47533 8.76919 29683 ft 492 kts
2026-05-06 22:11 44.50949 8.77443 30041 ft 492 kts
2026-05-06 22:12 44.54351 8.77976 30450 ft 492 kts
2026-05-06 22:12 44.57732 8.78513 30838 ft 491 kts
2026-05-06 22:12 44.61112 8.79051 31238 ft 489 kts
2026-05-06 22:12 44.64487 8.79584 31611 ft 489 kts
2026-05-06 22:13 44.67826 8.80114 31965 ft 488 kts
2026-05-06 22:13 44.71197 8.80652 32334 ft 487 kts
2026-05-06 22:13 44.74589 8.81193 32694 ft 486 kts
2026-05-06 22:13 44.77936 8.81726 33046 ft 484 kts
2026-05-06 22:14 44.81240 8.82254 33387 ft 483 kts
2026-05-06 22:14 44.84586 8.82789 33718 ft 482 kts
2026-05-06 22:14 44.87906 8.83320 34038 ft 481 kts
2026-05-06 22:14 44.91209 8.83850 34331 ft 481 kts
2026-05-06 22:15 44.94544 8.84384 34591 ft 479 kts
2026-05-06 22:15 44.97844 8.84915 34816 ft 478 kts
2026-05-06 22:15 45.01118 8.85441 34990 ft 477 kts
2026-05-06 22:15 45.04414 8.85969 35184 ft 477 kts
2026-05-06 22:16 45.07673 8.86495 35379 ft 476 kts
2026-05-06 22:16 45.10970 8.87028 35573 ft 476 kts
2026-05-06 22:16 45.14272 8.87562 35750 ft 475 kts
2026-05-06 22:16 45.17521 8.88089 35948 ft 473 kts
2026-05-06 22:17 45.20761 8.88613 36171 ft 472 kts
2026-05-06 22:17 45.24013 8.89138 36358 ft 473 kts
2026-05-06 22:17 45.27298 8.89671 36509 ft 473 kts
2026-05-06 22:17 45.30579 8.90205 36675 ft 474 kts
2026-05-06 22:18 45.33812 8.90728 36782 ft 475 kts
2026-05-06 22:18 45.37130 8.91269 36908 ft 476 kts
2026-05-06 22:18 45.40409 8.91805 37041 ft 477 kts
2026-05-06 22:18 45.43666 8.92335 37160 ft 477 kts
2026-05-06 22:19 45.46988 8.92878 37289 ft 477 kts
2026-05-06 22:19 45.50271 8.93414 37410 ft 477 kts
2026-05-06 22:19 45.53545 8.93951 37545 ft 478 kts
2026-05-06 22:19 45.56853 8.94494 37645 ft 479 kts
2026-05-06 22:20 45.63440 8.95576 37866 ft 479 kts
2026-05-06 22:20 45.70069 8.96672 37897 ft 479 kts
2026-05-06 22:21 45.76675 8.97761 37889 ft 479 kts
2026-05-06 22:21 45.83244 8.98849 37867 ft 478 kts
2026-05-06 22:22 45.89822 8.99938 37886 ft 478 kts
2026-05-06 22:22 45.96421 9.01030 37922 ft 478 kts
2026-05-06 22:23 46.03022 9.02127 37913 ft 477 kts
2026-05-06 22:23 46.09580 9.03223 37918 ft 476 kts
2026-05-06 22:24 46.16153 9.04116 37915 ft 474 kts 359°
2026-05-06 22:24 46.22696 9.04081 37917 ft 471 kts 354°
2026-05-06 22:25 46.29214 9.03776 37919 ft 471 kts 354°
2026-05-06 22:25 46.35786 9.03468 37918 ft 471 kts 355°
2026-05-06 22:26 46.42305 9.03180 37893 ft 471 kts 355°
2026-05-06 22:26 46.48832 9.02895 37894 ft 471 kts 355°
2026-05-06 22:27 46.55342 9.02611 37899 ft 471 kts 355°
2026-05-06 22:27 46.61900 9.02324 37905 ft 470 kts 355°
2026-05-06 22:28 46.68415 9.02040 37915 ft 470 kts 355°
2026-05-06 22:28 46.74921 9.01756 37924 ft 469 kts 355°
2026-05-06 22:29 46.81413 9.01470 37922 ft 469 kts 355°
2026-05-06 22:29 46.87909 9.01182 37907 ft 468 kts 355°
2026-05-06 22:30 46.94398 9.00897 37898 ft 468 kts 356°
2026-05-06 22:30 47.00878 9.00611 37882 ft 467 kts 356°
2026-05-06 22:31 47.07394 9.00324 37889 ft 468 kts 355°
2026-05-06 22:31 47.13861 9.00036 37902 ft 468 kts 356°
2026-05-06 22:32 47.20343 8.99746 37925 ft 468 kts 356°
2026-05-06 22:32 47.26798 8.99456 37942 ft 468 kts 356°
2026-05-06 22:33 47.33323 8.99163 37944 ft 468 kts 356°
2026-05-06 22:33 47.39809 8.98872 37948 ft 468 kts 356°
2026-05-06 22:34 47.46286 8.98582 37946 ft 468 kts 356°
2026-05-06 22:34 47.52784 8.98288 37936 ft 468 kts 356°
2026-05-06 22:35 47.59258 8.97997 37935 ft 468 kts 356°
2026-05-06 22:35 47.65751 8.97702 37933 ft 468 kts 356°
2026-05-06 22:36 47.72226 8.97406 37931 ft 468 kts 356°
2026-05-06 22:36 47.78709 8.97110 37930 ft 468 kts 356°
2026-05-06 22:37 47.85181 8.96812 37930 ft 468 kts 356°
2026-05-06 22:37 47.91682 8.96514 37921 ft 468 kts 356°
2026-05-06 22:38 47.98148 8.96214 37815 ft 468 kts 356°
2026-05-06 22:38 48.01416 8.96062 37590 ft 466 kts 357°
2026-05-06 22:38 48.04620 8.95915 37370 ft 464 kts 356°
2026-05-06 22:39 48.07825 8.95766 37115 ft 462 kts 356°
2026-05-06 22:39 48.11005 8.95618 36754 ft 460 kts 356°
2026-05-06 22:39 48.14216 8.95482 36244 ft 460 kts 358°
2026-05-06 22:39 48.17421 8.95561 35629 ft 463 kts
2026-05-06 22:40 48.20598 8.95912 34997 ft 467 kts
2026-05-06 22:40 48.23868 8.96397 34347 ft 470 kts
2026-05-06 22:40 48.27090 8.96902 33723 ft 472 kts
2026-05-06 22:40 48.30355 8.97413 33116 ft 475 kts
2026-05-06 22:41 48.36944 8.98422 31787 ft 481 kts
2026-05-06 22:41 48.40257 8.98925 31024 ft 483 kts
2026-05-06 22:41 48.43596 8.99432 30224 ft 484 kts
2026-05-06 22:42 48.46930 8.99940 29459 ft 482 kts
2026-05-06 22:42 48.50224 9.00445 28961 ft 475 kts
2026-05-06 22:42 48.53460 9.00941 28472 ft 467 kts
2026-05-06 22:42 48.56647 9.01428 27998 ft 461 kts
2026-05-06 22:43 48.59829 9.01914 27524 ft 454 kts
2026-05-06 22:43 48.62916 9.02424 27059 ft 447 kts
2026-05-06 22:43 48.65961 9.03094 26595 ft 441 kts
2026-05-06 22:43 48.68941 9.03804 26140 ft 435 kts
2026-05-06 22:44 48.71923 9.04527 25693 ft 428 kts 10°
2026-05-06 22:44 48.74803 9.05222 25227 ft 423 kts 10°
2026-05-06 22:44 48.77693 9.05918 24761 ft 418 kts 10°
2026-05-06 22:44 48.80542 9.06600 24303 ft 413 kts 10°
2026-05-06 22:45 48.83345 9.07271 23837 ft 408 kts 10°
2026-05-06 22:45 48.86147 9.07944 23346 ft 404 kts 10°
2026-05-06 22:45 48.88898 9.08536 22849 ft 401 kts
2026-05-06 22:45 48.91652 9.08965 22378 ft 397 kts
2026-05-06 22:46 48.94378 9.09346 21929 ft 393 kts
2026-05-06 22:46 48.97088 9.09720 21474 ft 390 kts
2026-05-06 22:46 48.99766 9.10095 21017 ft 387 kts
2026-05-06 22:46 49.02441 9.10475 20526 ft 386 kts
2026-05-06 22:47 49.05082 9.10853 19969 ft 386 kts
2026-05-06 22:47 49.07765 9.11236 19376 ft 387 kts
2026-05-06 22:47 49.10434 9.11617 18774 ft 388 kts
2026-05-06 22:47 49.13139 9.12004 18170 ft 389 kts
2026-05-06 22:48 49.15806 9.12385 17651 ft 388 kts
2026-05-06 22:48 49.18487 9.12767 17186 ft 385 kts
2026-05-06 22:48 49.21115 9.13143 16746 ft 382 kts
2026-05-06 22:48 49.23740 9.13518 16311 ft 378 kts
2026-05-06 22:49 49.26361 9.13897 15936 ft 373 kts
2026-05-06 22:49 49.28880 9.14433 15883 ft 364 kts
2026-05-06 22:49 49.31343 9.15207 15523 ft 362 kts 12°
2026-05-06 22:49 49.33787 9.16067 14713 ft 368 kts 12°
2026-05-06 22:50 49.36272 9.16960 14114 ft 363 kts 12°
2026-05-06 22:50 49.38704 9.17832 13610 ft 355 kts 12°
2026-05-06 22:50 49.41833 9.18947 12986 ft 345 kts 12°
2026-05-06 22:50 49.43397 9.19503 12678 ft 344 kts 12°
2026-05-06 22:51 49.45706 9.20322 12231 ft 343 kts 12°
2026-05-06 22:51 49.48026 9.21147 11776 ft 342 kts 12°
2026-05-06 22:51 49.50340 9.21971 11319 ft 341 kts 12°
2026-05-06 22:51 49.52634 9.22787 10863 ft 340 kts 12°
2026-05-06 22:52 49.54919 9.23604 10737 ft 331 kts 11°
2026-05-06 22:52 49.57090 9.24381 10753 ft 313 kts 12°
2026-05-06 22:52 49.59170 9.25125 10770 ft 299 kts 11°
2026-05-06 22:52 49.61182 9.25843 10793 ft 298 kts 11°
2026-05-06 22:53 49.63190 9.26560 10811 ft 298 kts 11°
2026-05-06 22:53 49.65225 9.27288 10809 ft 298 kts 11°
2026-05-06 22:53 49.67234 9.28008 10470 ft 301 kts 11°
2026-05-06 22:53 49.69968 9.28990 9867 ft 302 kts 11°
2026-05-06 22:54 49.71315 9.29474 9752 ft 295 kts 11°
2026-05-06 22:54 49.73300 9.30188 9775 ft 293 kts 11°
2026-05-06 22:54 49.75263 9.30893 9804 ft 293 kts 11°
2026-05-06 22:54 49.77268 9.31615 9830 ft 293 kts 11°
2026-05-06 22:55 49.79233 9.32324 9844 ft 293 kts 11°
2026-05-06 22:55 49.81221 9.33039 9845 ft 293 kts 10°
2026-05-06 22:55 49.83222 9.33300 9837 ft 289 kts 350°
2026-05-06 22:55 49.85683 9.31840 9843 ft 284 kts 321°
2026-05-06 22:56 49.86650 9.30474 9844 ft 282 kts 307°
2026-05-06 22:56 49.87631 9.27887 9843 ft 279 kts 288°
2026-05-06 22:56 49.88200 9.25022 9850 ft 278 kts 284°
2026-05-06 22:56 49.88719 9.22173 9852 ft 278 kts 284°
2026-05-06 22:57 49.89247 9.19289 9852 ft 278 kts 284°
2026-05-06 22:57 49.89782 9.16408 9849 ft 278 kts 284°
2026-05-06 22:57 49.90319 9.13551 9853 ft 278 kts 284°
2026-05-06 22:57 49.90864 9.10662 9853 ft 278 kts 284°
2026-05-06 22:58 49.91406 9.07797 9854 ft 277 kts 284°
2026-05-06 22:58 49.91946 9.04944 9854 ft 277 kts 284°
2026-05-06 22:58 49.92486 9.02088 9854 ft 277 kts 285°
2026-05-06 22:58 49.93026 8.99227 9857 ft 277 kts 284°
2026-05-06 22:59 49.93596 8.96397 9856 ft 278 kts 291°
2026-05-06 22:59 49.94676 8.93869 9858 ft 283 kts 313°
2026-05-06 22:59 49.96275 8.92133 9870 ft 287 kts 334°
2026-05-06 22:59 49.98219 8.91377 9871 ft 291 kts 355°
2026-05-06 23:00 50.00236 8.91522 9871 ft 294 kts 10°
2026-05-06 23:00 50.02134 8.92714 9876 ft 297 kts 33°
2026-05-06 23:00 50.03968 8.95773 9624 ft 294 kts 62°
2026-05-06 23:00 50.04509 8.97724 9345 ft 295 kts 70°
2026-05-06 23:01 50.05386 9.01724 9003 ft 286 kts 71°
2026-05-06 23:01 50.06008 9.04583 8772 ft 275 kts 71°
2026-05-06 23:01 50.06423 9.06438 8541 ft 272 kts 70°
2026-05-06 23:01 50.07265 9.10113 8147 ft 268 kts 70°
2026-05-06 23:02 50.07678 9.11895 8025 ft 262 kts 70°
2026-05-06 23:02 50.08287 9.14509 7852 ft 252 kts 70°
2026-05-06 23:02 50.08869 9.17009 7623 ft 240 kts 69°
2026-05-06 23:02 50.09425 9.19405 7387 ft 236 kts 69°
2026-05-06 23:03 50.10067 9.21709 7108 ft 233 kts 51°
2026-05-06 23:03 50.11342 9.23109 6937 ft 223 kts
2026-05-06 23:03 50.12820 9.22876 6822 ft 214 kts 330°
2026-05-06 23:03 50.13981 9.21467 6700 ft 208 kts 303°
2026-05-06 23:04 50.15020 9.18972 6545 ft 207 kts 299°
2026-05-06 23:04 50.15543 9.17713 6466 ft 207 kts 301°
2026-05-06 23:04 50.16343 9.15865 6348 ft 207 kts 302°
2026-05-06 23:04 50.17169 9.14013 6275 ft 207 kts 302°
2026-05-06 23:05 50.17757 9.12002 6155 ft 204 kts 276°
2026-05-06 23:05 50.17733 9.09801 6022 ft 205 kts 259°
2026-05-06 23:05 50.17269 9.06963 5758 ft 203 kts 255°
2026-05-06 23:05 50.16879 9.04864 5479 ft 204 kts 253°
2026-05-06 23:06 50.16452 9.02748 5221 ft 203 kts 252°
2026-05-06 23:06 50.16154 9.01352 5166 ft 203 kts 252°
2026-05-06 23:06 50.15537 8.98596 5141 ft 203 kts 251°
2026-05-06 23:06 50.15215 8.97214 5087 ft 204 kts 251°
2026-05-06 23:07 50.14726 8.95158 5000 ft 204 kts 251°
2026-05-06 23:07 50.14222 8.93084 5031 ft 203 kts 250°
2026-05-06 23:07 50.13717 8.91029 5080 ft 204 kts 250°
2026-05-06 23:07 50.13209 8.88967 5030 ft 204 kts 250°
2026-05-06 23:08 50.12553 8.86309 4995 ft 189 kts 251°
2026-05-06 23:08 50.12249 8.85077 4921 ft 182 kts 250°
2026-05-06 23:08 50.11655 8.82655 4585 ft 176 kts 251°
2026-05-06 23:08 50.11366 8.81476 4404 ft 172 kts 251°
2026-05-06 23:09 50.10950 8.79778 4136 ft 165 kts 251°
2026-05-06 23:09 50.10555 8.78157 3884 ft 157 kts 251°
2026-05-06 23:09 50.10052 8.76090 3576 ft 151 kts 252°
2026-05-06 23:09 50.09809 8.75086 3447 ft 148 kts 252°
2026-05-06 23:10 50.09459 8.73646 3223 ft 137 kts 252°
2026-05-06 23:10 50.09018 8.71824 2981 ft 135 kts 252°
2026-05-06 23:10 50.08688 8.70454 2799 ft 134 kts 252°
2026-05-06 23:10 50.08472 8.69559 2677 ft 134 kts 252°
2026-05-06 23:11 50.08036 8.67751 2430 ft 134 kts 252°
2026-05-06 23:11 50.07709 8.66399 2239 ft 133 kts 252°
2026-05-06 23:11 50.07491 8.65491 2110 ft 133 kts 253°
2026-05-06 23:11 50.07169 8.64156 1917 ft 133 kts 253°
2026-05-06 23:12 50.06740 8.62375 1656 ft 132 kts 253°
2026-05-06 23:12 50.06420 8.61045 1464 ft 132 kts 253°
2026-05-06 23:12 50.06101 8.59716 1275 ft 131 kts 253°
2026-05-06 23:12 50.05780 8.58380 1088 ft 131 kts 252°
2026-05-06 23:13 50.05569 8.57498 966 ft 131 kts 252°
2026-05-06 23:13 50.05148 8.55743 719 ft 130 kts 252°
2026-05-06 23:13 50.04936 8.54858 594 ft 130 kts 252°
2026-05-06 23:13 50.04623 8.53553 409 ft 129 kts 252°
2026-05-06 23:14 50.04250 8.51971 335 ft 86 kts 248°
2026-05-06 23:14 50.04058 8.51476 332 ft 46 kts 220°
2026-05-06 23:14 50.03917 8.51484 332 ft 20 kts 71°
2026-05-06 23:14 50.03950 8.51625 333 ft 21 kts 70°
2026-05-06 23:15 50.04021 8.51923 334 ft 22 kts 69°
2026-05-06 23:15 50.04075 8.52144 336 ft 21 kts 69°
2026-05-06 23:15 50.04111 8.52285 337 ft 20 kts 70°
2026-05-06 23:15 50.04187 8.52613 340 ft 31 kts 71°
2026-05-06 23:16 50.04266 8.52944 344 ft 31 kts 70°
2026-05-06 23:16 50.04339 8.53251 347 ft 29 kts 69°
2026-05-06 23:16 50.04398 8.53537 349 ft 27 kts 84°
2026-05-06 23:16 50.04417 8.53827 349 ft 26 kts 84°
2026-05-06 23:17 50.04436 8.54106 349 ft 26 kts 84°
2026-05-06 23:17 50.04453 8.54383 348 ft 25 kts 88°
2026-05-06 23:17 50.04408 8.54643 348 ft 24 kts 126°
2026-05-06 23:17 50.04325 8.54760 348 ft 24 kts 151°
2026-05-06 23:18 50.04115 8.54883 347 ft 24 kts 160°
2026-05-06 23:18 50.04029 8.55054 347 ft 22 kts 71°
2026-05-06 23:18 50.04065 8.55213 348 ft 26 kts 70°
2026-05-06 23:18 50.04171 8.55653 350 ft 38 kts 70°
2026-05-06 23:19 50.04265 8.56023 352 ft 33 kts 52°
2026-05-06 23:19 50.04425 8.56048 353 ft 21 kts 38°
2026-05-06 23:19 50.04444 8.56197 353 ft 10 kts 152°
2026-05-06 23:19 50.04410 8.56218 353 ft 0 kts 161°